Powrót do katalogu

FENGYUN 1C DEB

AktywnySSO
NORAD 31466·DEBRIS·🇨🇳 China

Wystrzelony May 10, 1999 z Taiyuan Satellite Launch Center

Loading…

Następne Przeloty (najbliższe 24 godziny)

TLE

ŚwieżeSource: Space-Track

Epoka: Sep 14, 2026, 02:50 UTC

1 31466U 99025BVE 26257.11861542  .00000116  00000-0  54199-4 0  9995
2 31466  99.1071 199.6119 0297795 244.9315 112.0679 14.18786800  1798

Śledź FENGYUN 1C DEB w czasie rzeczywistym z AllMySat

Download on the App Store